AirNav   Everest Fuels
 
 854 users online  

05KY Cartersville Airport
Berea, Kentucky, USA

GOING TO BEREA?


FAA INFORMATION EFFECTIVE 26 MARCH 2020

Location

FAA Identifier: 05KY
Lat/Long: 37-32-08.0000N 084-24-26.0000W
37-32.133333N 084-24.433333W
37.5355556,-84.4072222
(estimated)
Elevation: 1070 ft. / 326 m (estimated)
From city: 8 miles W of BEREA, KY
Time zone: UTC -4 (UTC -5 during Standard Time)
Zip code: 40461

Airport Operations

Airport use: Private use. Permission required prior to landing
Activation date: 04/2006
Control tower: no
ARTCC: INDIANAPOLIS CENTER
FSS: LOUISVILLE FLIGHT SERVICE STATION
Attendance: IRREG
Wind indicator: yes
Segmented circle: no
Airline operations: BY PERMISSION ONLY.

Airport Communications

WX AWOS-3 at RGA (7 nm NE): 119.625 (859-985-5969)
WX AWOS-3 at DVK (17 nm W): 128.325 (859-854-0058)

Nearby radio navigation aids

VOR radial/distance  VOR name  Freq  Var
HYKr173/26.0LEXINGTON VOR/DME112.6000E
LOZr338/33.3LONDON VOR/DME116.1003W

 
NDB name  Hdg/Dist  Freq  Var  ID
GOODALL101/17.131103WDVK -.. ...- -.-
SECO236/22.339303WXYC -..- -.-- -.-.
CUMBERLAND RIVER027/34.938805WCDX -.-. -.. -..-
MOUNT STERLING219/37.421006WIOB .. --- -...

Airport Services

Runway Information

Runway 2/20

Dimensions: 1270 x 75 ft. / 387 x 23 m
Surface: turf
RUNWAY 2  RUNWAY 20
Traffic pattern: leftleft
Displaced threshold: 150 ft.
DISP THLD MKD WITH CONCRETE PADS ON EDGE.
no
Obstructions: 50 ft. trees, 100 ft. from runwaynone

Airport Ownership and Management from official FAA records

Ownership: Privately-owned
Owner: JOHNNIE W. BULLENS
4194 CARTERSVILLE ROAD
PAINT LICK, KY 40461
Phone 859-925-3248
Manager: JOHNNIE W. BULLENS
4194 CARTERSVILLE ROAD
PAINT LICK, KY 40461
Phone 859-925-3248

Airport Operational Statistics

Aircraft based on the field: 1
Single engine airplanes: 1
    

Additional Remarks

APCH FM NE ONLY TO RY 20 ONLY. DEPART TO NE ONLY RY 2.
RY RISES 40 FT AT MIDFIELD - GRADUAL 10% - ONE WAY IN - ONE WAY OUT.
FOR CD CTC LEXINGTON APCH AT 859-514-7890.
(CONTACT TITLE) OWNER/MANAGER FLYBOY_40461@YAHOO.COM

Instrument Procedures

There are no published instrument procedures at 05KY.

Some nearby airports with instrument procedures:

KRGA - Central Kentucky Regional Airport (7 nm NE)
KDVK - Stuart Powell Field Airport (17 nm W)
KSME - Lake Cumberland Regional Airport (31 nm S)
KLOZ - London-Corbin Airport-Magee Field (31 nm SE)
KLEX - Blue Grass Airport (32 nm N)
 
Loc | Ops | Rwys | IFR | FBO | Links
Com | Nav | Svcs | Stats | Notes
Area around 05KY (Cartersville Airport)
 
Road maps at: MapQuest Bing Google
 
Aerial photo
No photo
 
Sectional chart

 
Airport distance calculator
Flying to Cartersville Airport? Find the distance to fly.

From to 05KY

Sunrise and sunset
Times for 31-Mar-2020
 Local
(UTC-4)
 Zulu
(UTC)
Morning civil twilight06:5810:58
Sunrise07:2411:24
Sunset19:5923:59
Evening civil twilight20:2500:25

Current date and time
Zulu (UTC)  01-Apr-2020 00:53:08
Local (UTC-4)  31-Mar-2020 20:53:08
 
METAR
KRGA 
7nm NE 
010035Z AUTO 00000KT 10SM OVC018 05/04 A2987 RMK AO2
KDVK 
17nm W 
010035Z AUTO 35003KT 10SM OVC027 05/03 A2990 RMK AO2
TAF
KSME 
31nm S 
312105Z 3121/0118 04007KT P6SM -RA OVC010 FM010000 34006KT P6SM VCSH OVC012 FM010600 34007KT P6SM OVC015
KLEX 
31nm N 
312003Z 3120/0118 33005KT P6SM -RA BKN035 OVC050 FM312300 34011KT P6SM OVC035 FM010700 32007KT P6SM OVC015
KLOZ 
32nm SE 
312235Z 3123/0118 04007KT P6SM -RA SCT008 BKN020 FM010000 34006KT P6SM VCSH OVC012 FM010600 34007KT P6SM OVC015
NOTAMs
Click for the latest NOTAMs
NOTAMs are issued by the DoD/FAA and will open in a separate window not controlled by AirNav.

 

 
 

Would you like to see your business listed on this page?

 If your business provides an interesting product or service to pilots, flight crews, aircraft, or users of the Cartersville Airport, you should consider listing it here.  To start the listing process, click on the button below
 
Add a business
 

Other Pages about Cartersville Airport

Update a link
 
Copyright © AirNav, LLC. All rights reserved. Privacy Policy  Contact